Escanaba, MI

11:54 PM EST on February 08, 2016 (GMT -0500)
Delta County

Weather History for KESC - January, 2014

Change the Weather History Date:

Friday, January 3, 2014

  Actual Average (KIMT) Record (KIMT)
Temperature  
Mean Temperature 5 °F -  
Max Temperature 21 °F 23 °F - (-1)
Min Temperature -9 °F 4 °F - (-1)
Degree Days  
Heating Degree Days 60    
Moisture  
Dew Point -2 °F    
Average Humidity 73    
Maximum Humidity 100    
Minimum Humidity 57    
Precipitation  
Precipitation 0.00 in - - ()
Sea Level Pressure  
Sea Level Pressure 30.07 in    
Wind  
Wind Speed 10 mph (SW)    
Max Wind Speed 26 mph    
Max Gust Speed 45 mph    
Visibility 9 miles    
Events      
Averages and records for this station are not official NWS values.
T = Trace of Precipitation, MM = Missing Value Source: NWS Daily Summary

Daily Weather History Graph

Daily Weather History Graph

Search for Another Location

Airport or City:

Trip Planner

Search our weather history database for the weather conditions in past years. The results will help you decide how hot, cold, wet, or windy it might be!

Date:

Astronomy

Jan. 03, 2014 Rise Set
Actual Time 8:29 AM EST 5:16 PM EST
Civil Twilight 7:55 AM EST 5:50 PM EST
Nautical Twilight 7:17 AM EST 6:28 PM EST
Astronomical Twilight 6:41 AM EST 7:04 PM EST
Moon 9:45 AM EST (1/3) 8:36 PM EST (1/3)
Length of Visible Light 9h 55m
Length of Day
8h 47m
Waxing Crescent, 8% of the Moon is Illuminated
Jan 3
Waxing Crescent
Jan 7
First Quarter
Jan 15
Full
Jan 24
Last Quarter
Jan 30
New

Hourly Weather History & Observations

Time (EST) Temp. Windchill Dew Point Humidity Pressure Visibility Wind Dir Wind Speed Gust Speed Precip Events Conditions
12:15 AM -2.2 °F -14.2 °F -9.4 °F 71% 30.33 in 10.0 mi WNW 5.8 mph - N/A   Clear
12:35 AM -2.2 °F -15.6 °F -9.4 °F 71% 30.33 in 10.0 mi WNW 6.9 mph - N/A   Clear
12:55 AM -4.0 °F -17.8 °F -9.4 °F 78% 30.33 in 10.0 mi WNW 6.9 mph - N/A   Clear
1:15 AM -5.8 °F -18.4 °F -11.2 °F 77% 30.33 in 10.0 mi WNW 5.8 mph - N/A   Clear
1:35 AM -5.8 °F -18.4 °F -7.6 °F 92% 30.33 in 10.0 mi WNW 5.8 mph - N/A   Clear
1:55 AM -5.8 °F -18.4 °F -13.0 °F 71% 30.32 in 10.0 mi WNW 5.8 mph - N/A   Clear
2:15 AM -5.8 °F -18.4 °F -9.4 °F 84% 30.33 in 10.0 mi WNW 5.8 mph - N/A   Clear
2:35 AM -7.6 °F -20.6 °F -11.2 °F 84% 30.34 in 10.0 mi WNW 5.8 mph - N/A   Clear
2:55 AM -7.6 °F -18.8 °F -11.2 °F 84% 30.33 in 10.0 mi WNW 4.6 mph - N/A   Clear
3:15 AM -7.6 °F -23.4 °F -9.4 °F 92% 30.34 in 10.0 mi West 8.1 mph - N/A   Clear
3:35 AM -9.4 °F -24.3 °F -16.6 °F 71% 30.34 in 10.0 mi West 6.9 mph - N/A   Clear
3:55 AM -9.4 °F -24.3 °F -11.2 °F 92% 30.33 in 10.0 mi WNW 6.9 mph - N/A   Clear
4:15 AM -7.6 °F -18.8 °F -11.2 °F 84% 30.33 in 10.0 mi WNW 4.6 mph - N/A   Clear
4:35 AM -7.6 °F -18.8 °F -14.8 °F 71% 30.32 in 10.0 mi WNW 4.6 mph - N/A   Clear
4:55 AM -9.4 °F -22.7 °F -11.2 °F 92% 30.31 in 10.0 mi WNW 5.8 mph - N/A   Clear
5:15 AM -9.4 °F -20.9 °F -14.8 °F 77% 30.30 in 10.0 mi West 4.6 mph - N/A   Clear
5:35 AM -9.4 °F -22.7 °F -14.8 °F 77% 30.29 in 10.0 mi West 5.8 mph - N/A   Clear
5:55 AM -9.4 °F -22.7 °F -9.4 °F 100% 30.28 in 10.0 mi West 5.8 mph - N/A   Clear
6:15 AM -9.4 °F -22.7 °F -14.8 °F 77% 30.28 in 10.0 mi West 5.8 mph - N/A   Clear
6:35 AM -7.6 °F -20.6 °F -9.4 °F 92% 30.27 in 10.0 mi West 5.8 mph - N/A   Clear
6:55 AM -7.6 °F -18.8 °F -11.2 °F 84% 30.27 in 10.0 mi West 4.6 mph - N/A   Clear
7:15 AM -7.6 °F -18.8 °F -14.8 °F 71% 30.28 in 10.0 mi West 4.6 mph - N/A   Clear
7:35 AM -5.8 °F -18.4 °F -9.4 °F 84% 30.28 in 10.0 mi West 5.8 mph - N/A   Clear
7:55 AM -4.0 °F -14.6 °F -9.4 °F 78% 30.27 in 10.0 mi WSW 4.6 mph - N/A   Clear
8:15 AM -4.0 °F -14.6 °F -9.4 °F 78% 30.26 in 10.0 mi SW 4.6 mph - N/A   Partly Cloudy
8:35 AM -2.2 °F -14.2 °F -7.6 °F 78% 30.25 in 10.0 mi SW 5.8 mph - N/A   Scattered Clouds
8:55 AM -2.2 °F -15.6 °F -9.4 °F 71% 30.25 in 10.0 mi SW 6.9 mph - N/A   Mostly Cloudy
9:15 AM -2.2 °F -14.2 °F -5.8 °F 85% 30.25 in 10.0 mi SW 5.8 mph - N/A   Mostly Cloudy
9:35 AM -0.4 °F -12.0 °F -5.8 °F 78% 30.24 in 10.0 mi SW 5.8 mph - N/A   Scattered Clouds
9:55 AM -0.4 °F -12.0 °F -4.0 °F 85% 30.24 in 10.0 mi SW 5.8 mph - N/A   Mostly Cloudy
10:15 AM 1.4 °F -12.5 °F -5.8 °F 72% 30.23 in 10.0 mi SW 8.1 mph - N/A   Overcast
10:35 AM 3.2 °F -10.3 °F -2.2 °F 78% 30.21 in 10.0 mi SW 8.1 mph - N/A   Mostly Cloudy
10:55 AM 3.2 °F -13.1 °F -5.8 °F 66% 30.20 in 10.0 mi South 11.5 mph - N/A   Scattered Clouds
11:15 AM 3.2 °F -13.9 °F -5.8 °F 66% 30.19 in 10.0 mi SSW 12.7 mph - N/A   Partly Cloudy
11:35 AM 5.0 °F -10.8 °F -2.2 °F 72% 30.19 in 10.0 mi SSW 11.5 mph 16.1 mph N/A   Mostly Cloudy
11:55 AM 6.8 °F -6.9 °F -2.2 °F 67% 30.18 in 10.0 mi SSW 9.2 mph 19.6 mph N/A   Overcast
12:15 PM 6.8 °F -10.7 °F -2.2 °F 67% 30.15 in 10.0 mi SSW 15.0 mph 18.4 mph N/A   Overcast
12:35 PM 6.8 °F -10.0 °F -2.2 °F 67% 30.11 in 10.0 mi South 13.8 mph - N/A   Overcast
12:55 PM 8.6 °F -8.3 °F -0.4 °F 67% 30.09 in 10.0 mi South 15.0 mph 20.7 mph N/A   Scattered Clouds
1:15 PM 8.6 °F -7.0 °F -2.2 °F 62% 30.08 in 10.0 mi South 12.7 mph 25.3 mph N/A   Mostly Cloudy
1:35 PM 8.6 °F -8.3 °F -0.4 °F 67% 30.06 in 10.0 mi SSW 15.0 mph 23.0 mph N/A   Overcast
1:55 PM 8.6 °F -10.0 °F -0.4 °F 67% 30.04 in 10.0 mi SSW 18.4 mph 24.2 mph N/A   Overcast
2:15 PM 8.6 °F -8.9 °F -0.4 °F 67% 30.03 in 10.0 mi South 16.1 mph 23.0 mph N/A   Overcast
2:35 PM 8.6 °F -9.5 °F -0.4 °F 67% 30.02 in 10.0 mi South 17.3 mph 24.2 mph N/A   Overcast
2:55 PM 8.6 °F -10.0 °F -0.4 °F 67% 30.01 in 10.0 mi SSW 18.4 mph 27.6 mph N/A   Overcast
3:15 PM 8.6 °F -8.3 °F -0.4 °F 67% 29.98 in 10.0 mi South 15.0 mph 26.5 mph N/A   Overcast
3:35 PM 10.4 °F -7.2 °F -0.4 °F 62% 29.97 in 10.0 mi SSW 17.3 mph 26.5 mph N/A   Overcast
3:55 PM 10.4 °F -5.4 °F 1.4 °F 67% 29.96 in 6.0 mi South 13.8 mph 27.6 mph N/A   Overcast
4:15 PM 10.4 °F -7.2 °F 1.4 °F 67% 29.95 in 2.5 mi SSW 17.3 mph 23.0 mph N/A   Overcast
4:35 PM 12.2 °F -5.8 °F 1.4 °F 62% 29.92 in 2.0 mi South 19.6 mph 26.5 mph N/A   Overcast
4:55 PM 12.2 °F -4.8 °F 6.8 °F 79% 29.89 in 9.0 mi South 17.3 mph 23.0 mph N/A   Overcast
5:15 PM 14.0 °F -2.5 °F 1.4 °F 57% 29.87 in 10.0 mi SSW 17.3 mph 25.3 mph N/A   Overcast
5:35 PM 15.8 °F 0.3 °F 3.2 °F 58% 29.86 in 10.0 mi South 16.1 mph 26.5 mph N/A   Overcast
5:55 PM 15.8 °F -0.6 °F 6.8 °F 68% 29.82 in 10.0 mi South 18.4 mph 27.6 mph N/A   Overcast
6:15 PM 17.6 °F 0.9 °F 8.6 °F 68% 29.79 in 10.0 mi SSW 20.7 mph 31.1 mph N/A   Overcast
6:35 PM 17.6 °F 0.9 °F 8.6 °F 68% 29.78 in 10.0 mi South 20.7 mph 31.1 mph N/A   Overcast
6:55 PM 17.6 °F 2.2 °F 10.4 °F 73% 29.77 in 10.0 mi SSW 17.3 mph 24.2 mph N/A   Overcast
7:15 PM 19.4 °F 3.6 °F 12.2 °F 74% 29.75 in 10.0 mi SSW 19.6 mph 27.6 mph N/A   Overcast
7:35 PM 19.4 °F 3.6 °F 12.2 °F 74% 29.74 in 10.0 mi SSW 19.6 mph 29.9 mph N/A   Overcast
7:55 PM 19.4 °F 2.1 °F 12.2 °F 74% 29.74 in 9.0 mi SSW 24.2 mph 31.1 mph N/A   Overcast
8:15 PM 19.4 °F 2.5 °F 12.2 °F 74% 29.73 in 10.0 mi SSW 23.0 mph 33.4 mph N/A   Overcast
8:35 PM 19.4 °F 1.8 °F 12.2 °F 74% 29.73 in 6.0 mi SSW 25.3 mph 36.8 mph N/A   Overcast
8:55 PM 19.4 °F 3.2 °F 8.6 °F 63% 29.71 in 9.0 mi SW 20.7 mph 34.5 mph N/A   Overcast
9:15 PM 19.4 °F 4.5 °F 8.6 °F 63% 29.71 in 9.0 mi SSW 17.3 mph 31.1 mph N/A   Overcast
9:35 PM 19.4 °F 3.2 °F 8.6 °F 63% 29.69 in 10.0 mi SW 20.7 mph 29.9 mph N/A   Overcast
9:55 PM 19.4 °F 2.8 °F 8.6 °F 63% 29.69 in 10.0 mi SSW 21.9 mph 29.9 mph N/A   Mostly Cloudy
10:15 PM 19.4 °F 1.4 °F 8.6 °F 63% 29.68 in 5.0 mi SSW 26.5 mph 44.9 mph N/A   Overcast
10:35 PM 19.4 °F 1.4 °F 8.6 °F 63% 29.67 in 6.0 mi SSW 26.5 mph 40.3 mph N/A   Overcast
10:55 PM 19.4 °F 2.5 °F 8.6 °F 63% 29.67 in 7.0 mi SSW 23.0 mph 36.8 mph N/A   Overcast
11:15 PM 19.4 °F 2.8 °F 8.6 °F 63% 29.66 in 10.0 mi SSW 21.9 mph 29.9 mph N/A   Overcast
11:35 PM 19.4 °F 2.1 °F 10.4 °F 68% 29.65 in 10.0 mi SSW 24.2 mph 33.4 mph N/A   Mostly Cloudy
11:55 PM 19.4 °F 3.2 °F 10.4 °F 68% 29.64 in 9.0 mi SSW 20.7 mph 34.5 mph N/A   Overcast